Location: Unspecified
(0.0000°N, 0.0000°E)
Time: 12:08:18
(UTC+00:00)

Envisat - Pass Details

Date: 07 December 2019
Orbit: 764 x 766 km, 98.1° (Epoch: 11 December)

Event Time Altitude Azimuth Distance (km) Brightness Sun altitude
Rises 19:14:26 0° 194° (SSW) 3,230 6.8 -19.1°
Reaches altitude 10° 19:17:14 10° 209° (SSW) 2,302 6.2 -19.7°
Maximum altitude 19:21:01 21° 258° (WSW) 1,656 5.6 -20.6°
Drops below altitude 10° 19:24:46 10° 306° (NW) 2,294 5.8 -21.4°
Sets 19:27:35 0° 322° (NW) 3,216 6.4 -22.1°
